Date String (YYYY-MM-DD hh:mm:ss) UTC,Instrument flags,absolute air pressure of the measurement (hPa),sample flow rate (lpm),inlet stack bypass flow (lpm),air temperature of the measurement (°C),ambient temperature measured by the external sensor (°C),aerosol sample conditioner tube jacket temperature (°C),OPC LED temperature (°C),internal box temperature (°C),relative humidity of the measurement (%),span deviation,mass concentration of particles derived from Lorenz-Mie calculation of OPC scattering (μg/m³),mass concentration of particles derived from Lorenz-Mie calculation of OPC scattering (μg/m³),mass concentration of particles derived from Lorenz-Mie calculation of OPC scattering (μg/m³)
DateTimeUTC,F1_M11,P_M11,Q1_M11,Q2_M11,T1_M11,T2_M11,T3_M11,T4_M11,T5_M11,U1_M11,ZSPAN_M11,X0_M11,X2_M11,X1_M11
2024-03-02 00:00:00,SystemResetWarning,0821.2,5.00,000.00,026.0,025.1,000.0,034.5,027.7,08.1,0000.0,0006.98,0002.18,0001.12
2024-03-02 00:01:00,SystemResetWarning,0821.2,4.99,000.00,026.0,025.1,000.0,034.5,027.7,08.0,0000.0,0007.02,0002.21,0001.12
2024-03-02 00:02:00,SystemResetWarning,0821.2,5.00,000.00,026.0,025.1,000.0,034.5,027.7,08.0,0000.0,0007.19,0002.25,0001.10
2024-03-02 00:03:00,SystemResetWarning,0821.1,5.00,000.00,026.0,025.1,000.0,034.5,027.7,08.0,0000.0,0005.70,0002.20,0001.10
2024-03-02 00:04:00,SystemResetWarning,0821.2,5.01,000.00,026.0,025.1,000.0,034.5,027.7,08.0,0000.0,0005.25,0002.18,0001.11
2024-03-02 00:05:00,SystemResetWarning,0821.2,5.01,000.00,026.0,025.1,000.0,034.5,027.7,07.6,0000.0,0005.30,0002.24,0001.13
2024-03-02 00:06:00,SystemResetWarning,0821.3,5.00,000.00,026.0,025.1,000.0,034.5,027.7,07.4,0000.0,0005.18,0002.23,0001.12
2024-03-02 00:07:00,SystemResetWarning,0821.3,5.00,000.00,026.0,025.0,000.0,034.5,027.7,07.5,0000.0,0004.91,0002.21,0001.11
2024-03-02 00:08:00,SystemResetWarning,0821.3,4.99,000.00,025.9,025.0,000.0,034.5,027.7,07.4,0000.0,0004.37,0002.18,0001.11
2024-03-02 00:09:00,SystemResetWarning,0821.4,5.01,000.00,025.9,025.0,000.0,034.5,027.7,07.5,0000.0,0005.17,0002.14,0001.11
2024-03-02 00:10:00,SystemResetWarning,0821.3,5.01,000.00,025.9,025.0,000.0,034.5,027.7,07.6,0000.0,0005.17,0002.13,0001.11
2024-03-02 00:11:00,SystemResetWarning,0821.3,4.99,000.00,025.9,025.0,000.0,034.5,027.7,07.7,0000.0,0005.09,0002.07,0001.10
2024-03-02 00:12:00,SystemResetWarning,0821.5,4.99,000.00,025.9,025.0,000.0,034.4,027.7,07.8,0000.0,0006.47,0002.03,0001.09
2024-03-02 00:13:00,SystemResetWarning,0821.3,5.00,000.00,025.9,025.0,000.0,034.4,027.7,07.5,0000.0,0007.20,0002.03,0001.10
2024-03-02 00:14:00,SystemResetWarning,0821.3,5.00,000.00,025.9,025.0,000.0,034.4,027.7,07.6,0000.0,0007.47,0002.03,0001.10
2024-03-02 00:15:00,SystemResetWarning,0821.4,5.01,000.00,025.9,025.0,000.0,034.4,027.7,07.7,0000.0,0007.63,0002.05,0001.09
2024-03-02 00:16:00,SystemResetWarning,0821.4,5.01,000.00,025.9,025.0,000.0,034.4,027.7,07.9,0000.0,0007.65,0002.03,0001.07
2024-03-02 00:17:00,SystemResetWarning,0821.6,5.00,000.00,025.9,025.1,000.0,034.4,027.7,07.7,0000.0,0007.78,0002.05,0001.06
2024-03-02 00:18:00,SystemResetWarning,0821.9,5.00,000.00,025.9,025.1,000.0,034.4,027.8,07.7,0000.0,0008.39,0002.07,0001.06
2024-03-02 00:19:00,SystemResetWarning,0822.0,4.99,000.00,025.9,025.1,000.0,034.4,027.7,07.7,0000.0,0008.54,0002.05,0001.03
2024-03-02 00:20:00,SystemResetWarning,0822.0,5.00,000.00,025.9,025.1,000.0,034.4,027.7,07.9,0000.0,0008.02,0002.08,0001.03
2024-03-02 00:21:00,SystemResetWarning,0822.0,5.01,000.00,025.9,025.1,000.0,034.4,027.7,08.0,0000.0,0008.11,0002.12,0001.03
2024-03-02 00:22:00,SystemResetWarning,0821.9,5.01,000.00,025.9,025.0,000.0,034.4,027.7,07.9,0000.0,0008.18,0002.15,0001.02
2024-03-02 00:23:00,SystemResetWarning,0821.7,5.00,000.00,025.9,025.0,000.0,034.4,027.7,08.1,0000.0,0007.53,0002.12,0001.01
2024-03-02 00:24:00,SystemResetWarning,0821.9,4.99,000.00,025.9,025.0,000.0,034.4,027.6,08.0,0000.0,0006.77,0002.03,0001.00
2024-03-02 00:25:00,SystemResetWarning,0822.0,4.99,000.00,025.9,024.9,000.0,034.4,027.6,08.0,0000.0,0005.96,0002.01,0001.00
2024-03-02 00:26:00,SystemResetWarning,0821.8,5.00,000.00,025.8,024.9,000.0,034.4,027.6,08.2,0000.0,0007.06,0002.02,0001.00
2024-03-02 00:27:00,SystemResetWarning,0821.9,5.01,000.00,025.8,024.8,000.0,034.4,027.5,08.2,0000.0,0007.05,0001.96,0001.00
2024-03-02 00:28:00,SystemResetWarning,0821.6,5.01,000.00,025.8,024.8,000.0,034.4,027.5,08.2,0000.0,0006.81,0001.88,0001.00
2024-03-02 00:29:00,SystemResetWarning,0821.4,5.01,000.00,025.8,024.8,000.0,034.4,027.5,08.3,0000.0,0005.76,0001.77,0000.99
2024-03-02 00:30:00,SystemResetWarning,0821.8,5.00,000.00,025.8,024.7,000.0,034.4,027.5,08.3,0000.0,0004.91,0001.75,0000.99
2024-03-02 00:31:00,SystemResetWarning,0821.9,5.00,000.00,025.7,024.7,000.0,034.3,027.4,08.3,0000.0,0005.48,0001.74,0000.98
2024-03-02 00:32:00,SystemResetWarning,0821.6,5.00,000.00,025.7,024.7,000.0,034.3,027.4,08.4,0000.0,0006.08,0001.73,0000.97
2024-03-02 00:33:00,SystemResetWarning,0821.5,5.00,000.00,025.7,024.7,000.0,034.3,027.4,08.4,0000.0,0005.96,0001.69,0000.97
2024-03-02 00:34:00,SystemResetWarning,0821.6,5.00,000.00,025.7,024.7,000.0,034.3,027.4,08.4,0000.0,0006.01,0001.72,0000.98
2024-03-02 00:35:00,SystemResetWarning,0821.4,5.01,000.00,025.7,024.7,000.0,034.3,027.4,08.5,0000.0,0006.72,0001.72,0000.99
2024-03-02 00:36:00,SystemResetWarning,0821.3,5.00,000.00,025.7,024.7,000.0,034.3,027.4,08.5,0000.0,0008.18,0001.75,0000.99
2024-03-02 00:37:00,SystemResetWarning,0821.3,5.00,000.00,025.6,024.7,000.0,034.3,027.4,08.5,0000.0,0007.30,0001.68,0000.97
2024-03-02 00:38:00,SystemResetWarning,0821.3,5.00,000.00,025.6,024.7,000.0,034.3,027.4,08.6,0000.0,0007.32,0001.70,0000.98
2024-03-02 00:39:00,SystemResetWarning,0821.3,4.99,000.00,025.6,024.7,000.0,034.3,027.4,08.7,0000.0,0007.42,0001.76,0000.99
2024-03-02 00:40:00,SystemResetWarning,0821.2,5.00,000.00,025.6,024.7,000.0,034.2,027.4,08.8,0000.0,0007.45,0001.78,0001.00
2024-03-02 00:41:00,SystemResetWarning,0821.2,5.00,000.00,025.6,024.7,000.0,034.2,027.4,08.7,0000.0,0007.49,0001.81,0001.02
2024-03-02 00:42:00,SystemResetWarning,0821.1,5.00,000.00,025.6,024.7,000.0,034.2,027.4,08.7,0000.0,0006.91,0001.77,0001.01
2024-03-02 00:43:00,SystemResetWarning,0821.1,5.00,000.00,025.6,024.7,000.0,034.2,027.4,08.8,0000.0,0006.29,0001.78,0001.02
2024-03-02 00:44:00,SystemResetWarning,0821.1,5.00,000.00,025.6,024.7,000.0,034.2,027.4,08.9,0000.0,0006.66,0001.82,0001.04
2024-03-02 00:45:00,SystemResetWarning,0821.2,5.00,000.00,025.6,024.7,000.0,034.2,027.4,08.8,0000.0,0006.90,0001.84,0001.05
2024-03-02 00:46:00,SystemResetWarning,0821.0,5.00,000.00,025.6,024.7,000.0,034.2,027.4,08.9,0000.0,0006.96,0001.93,0001.07
2024-03-02 00:47:00,SystemResetWarning,0821.0,5.00,000.00,025.6,024.7,000.0,034.2,027.4,08.8,0000.0,0004.75,0001.98,0001.07
2024-03-02 00:48:00,SystemResetWarning,0821.0,5.00,000.00,025.6,024.7,000.0,034.2,027.4,08.8,0000.0,0004.64,0002.00,0001.08
2024-03-02 00:49:00,SystemResetWarning,0820.9,5.00,000.00,025.6,024.7,000.0,034.2,027.4,08.9,0000.0,0004.53,0001.98,0001.09
2024-03-02 00:50:00,SystemResetWarning,0821.1,5.00,000.00,025.6,024.7,000.0,034.2,027.4,08.9,0000.0,0004.38,0001.94,0001.09
2024-03-02 00:51:00,SystemResetWarning,0820.9,5.01,000.00,025.6,024.7,000.0,034.2,027.4,08.8,0000.0,0004.45,0001.97,0001.10
2024-03-02 00:52:00,SystemResetWarning,0821.3,5.00,000.00,025.6,024.7,000.0,034.1,027.4,08.8,0000.0,0004.83,0002.00,0001.10
2024-03-02 00:53:00,SystemResetWarning,0821.2,4.99,000.00,025.6,024.7,000.0,034.1,027.4,08.9,0000.0,0005.23,0002.04,0001.11
2024-03-02 00:54:00,SystemResetWarning,0821.0,5.00,000.00,025.6,024.7,000.0,034.1,027.4,08.9,0000.0,0005.16,0002.01,0001.12
2024-03-02 00:55:00,SystemResetWarning,0821.1,5.01,000.00,025.6,024.7,000.0,034.1,027.4,08.9,0000.0,0004.92,0001.98,0001.12
2024-03-02 00:56:00,SystemResetWarning,0821.0,5.00,000.00,025.6,024.7,000.0,034.1,027.4,09.0,0000.0,0004.49,0001.98,0001.13
2024-03-02 00:57:00,SystemResetWarning,0820.9,5.00,000.00,025.6,024.7,000.0,034.1,027.4,09.0,0000.0,0004.27,0001.96,0001.12
2024-03-02 00:58:00,SystemResetWarning,0821.0,4.99,000.00,025.6,024.7,000.0,034.1,027.4,09.0,0000.0,0004.28,0001.89,0001.12
2024-03-02 00:59:00,SystemResetWarning,0821.0,5.00,000.00,025.6,024.7,000.0,034.1,027.4,09.0,0000.0,0004.26,0001.89,0001.14
